Location: Burbank
(38.7788°N, 114.0429°W)
Time: 02:26:31
(UTC+00:00)

Tiros 1 despin weight - Pass Details

Date: 15 May 2026
Orbit: 554 x 591 km, 48.2° (Epoch: 6 June)

Event Time Altitude Azimuth Distance (km) Brightness Sun altitude
Rises 13:38:23 0° 263° (W) 2,751 ? 12.8°
Reaches altitude 10° 13:40:48 10° 272° (W) 1,850 ? 13.3°
Maximum altitude 13:44:42 35° 340° (NNW) 909 ? 14.0°
Drops below altitude 10° 13:48:34 10° 47° (NE) 1,839 ? 14.8°
Sets 13:50:58 0° 56° (ENE) 2,733 ? 15.2°
